Henderson, KY

9:05 AM CDT on August 23, 2019 (GMT -0500)
Henderson City-County

Weather History for KEHR - July, 2019

Change the Weather History Date:

Monday, July 22, 2019

  Actual Average Record
Temperature  
Mean Temperature 74 °F -  
Max Temperature 78 °F 88 °F 102 °F (1932)
Min Temperature 68 °F 67 °F 52 °F (1944)
Cooling Degree Days 8    
Growing Degree Days 24 (Base 50)    
Moisture  
Dew Point 71 °F    
Average Humidity 91    
Maximum Humidity 100    
Minimum Humidity 78    
Precipitation  
Precipitation 0.11 in - - ()
Sea Level Pressure  
Sea Level Pressure 29.94 in    
Wind  
Wind Speed 4 mph (North)    
Max Wind Speed 12 mph    
Max Gust Speed -    
Visibility 9 miles    
Events Rain    
Averages and records for this station are not official NWS values.
T = Trace of Precipitation, MM = Missing Value Source: NWS Daily Summary

Daily Weather History Graph

Daily Weather History Graph

Search for Another Location

Airport or City:

Astronomy

Jul. 22, 2019 Rise Set
Actual Time 5:45 AM CDT 8:08 PM CDT
Civil Twilight 5:15 AM CDT 8:38 PM CDT
Nautical Twilight 4:38 AM CDT 9:14 PM CDT
Astronomical Twilight 3:58 AM CDT 9:55 PM CDT
Moon 11:34 PM CDT (7/22) 10:57 AM CDT (7/22)
Length of Visible Light 15h 22m
Length of Day
14h 22m
Waning Gibbous, 72% of the Moon is Illuminated
Jul 22
Waning Gibbous
Jul 24
Last Quarter
Jul 31
New
Aug 7
First Quarter
Aug 15
Full

Hourly Weather History & Observations

Time (CDT) Temp. Dew Point Humidity Pressure Visibility Wind Dir Wind Speed Gust Speed Precip Events Conditions
12:56 AM 72.0 °F 71.1 °F 97% 29.91 in 10.0 mi Calm Calm - 0.01 in   Clear
1:56 AM 72.0 °F 71.1 °F 97% 29.89 in 10.0 mi North 4.6 mph - N/A   Mostly Cloudy
2:06 AM 71.6 °F 71.6 °F 100% 29.89 in 10.0 mi NNE 3.5 mph - N/A   Mostly Cloudy
2:56 AM 73.0 °F 72.0 °F 96% 29.89 in 10.0 mi Calm Calm - N/A   Overcast
3:56 AM 73.0 °F 72.0 °F 96% 29.89 in 4.0 mi Calm Calm - N/A   Partly Cloudy
4:35 AM 73.4 °F 71.6 °F 94% 29.90 in 10.0 mi Calm Calm - N/A   Scattered Clouds
4:56 AM 73.0 °F 72.0 °F 96% 29.90 in 8.0 mi Calm Calm - N/A   Mostly Cloudy
5:10 AM 73.4 °F 71.6 °F 94% 29.92 in 9.0 mi Calm Calm - N/A   Scattered Clouds
5:20 AM 73.4 °F 71.6 °F 94% 29.92 in 8.0 mi Calm Calm - N/A   Mostly Cloudy
5:36 AM 73.4 °F 71.6 °F 94% 29.92 in 10.0 mi Calm Calm - N/A   Mostly Cloudy
5:50 AM 73.4 °F 71.6 °F 94% 29.92 in 5.0 mi South 3.5 mph - N/A   Scattered Clouds
5:56 AM 73.0 °F 72.0 °F 96% 29.92 in 6.0 mi SSE 3.5 mph - N/A   Partly Cloudy
6:56 AM 73.0 °F 73.0 °F 100% 29.91 in 6.0 mi Calm Calm - N/A   Clear
7:22 AM 73.4 °F 73.4 °F 100% 29.93 in 5.0 mi WSW 3.5 mph - N/A   Scattered Clouds
7:39 AM 73.4 °F 73.4 °F 100% 29.94 in 7.0 mi WSW 3.5 mph - N/A   Mostly Cloudy
7:53 AM 73.4 °F 73.4 °F 100% 29.94 in 8.0 mi WSW 3.5 mph - N/A   Overcast
7:56 AM 73.9 °F 73.0 °F 97% 29.93 in 8.0 mi Calm Calm - N/A   Overcast
8:30 AM 73.4 °F 73.4 °F 100% 29.94 in 10.0 mi NW 3.5 mph - 0.01 in   Scattered Clouds
8:51 AM 75.2 °F 73.4 °F 94% 29.94 in 10.0 mi NW 3.5 mph - 0.01 in   Partly Cloudy
8:56 AM 75.0 °F 73.0 °F 94% 29.94 in 10.0 mi WNW 3.5 mph - 0.01 in   Scattered Clouds
9:00 AM 75.2 °F 73.4 °F 94% 29.94 in 10.0 mi NW 3.5 mph - N/A   Mostly Cloudy
9:25 AM 75.2 °F 73.4 °F 94% 29.94 in 10.0 mi NNW 4.6 mph - N/A   Overcast
9:49 AM 75.2 °F 73.4 °F 94% 29.93 in 5.0 mi North 3.5 mph - 0.08 in Rain Light Rain
9:56 AM 75.9 °F 73.9 °F 94% 29.93 in 10.0 mi NNW 4.6 mph - 0.09 in Rain Light Rain
10:16 AM 77.0 °F 73.4 °F 89% 29.94 in 10.0 mi North 4.6 mph - 0.00 in   Scattered Clouds
10:31 AM 77.0 °F 73.4 °F 89% 29.94 in 10.0 mi North 8.1 mph - 0.00 in   Mostly Cloudy
10:42 AM 77.0 °F 73.4 °F 89% 29.94 in 10.0 mi NNE 5.8 mph - 0.00 in   Overcast
10:56 AM 77.0 °F 73.0 °F 88% 29.93 in 10.0 mi NNE 8.1 mph - 0.00 in   Overcast
11:27 AM 77.0 °F 73.4 °F 89% 29.94 in 10.0 mi NE 10.4 mph - N/A   Overcast
11:56 AM 78.1 °F 72.0 °F 81% 29.93 in 10.0 mi NNE 10.4 mph - N/A   Mostly Cloudy
12:09 PM 77.0 °F 71.6 °F 83% 29.95 in 10.0 mi NNE 9.2 mph - N/A   Mostly Cloudy
12:35 PM 75.2 °F 71.6 °F 89% 29.95 in 10.0 mi North 8.1 mph - N/A   Overcast
12:56 PM 75.9 °F 72.0 °F 87% 29.94 in 10.0 mi North 8.1 mph - 0.00 in Rain Light Rain
1:30 PM 75.2 °F 71.6 °F 89% 29.95 in 10.0 mi North 9.2 mph - 0.00 in Rain Light Rain
1:56 PM 73.9 °F 72.0 °F 93% 29.95 in 10.0 mi NNW 4.6 mph - 0.00 in   Scattered Clouds
2:02 PM 73.4 °F 71.6 °F 94% 29.96 in 10.0 mi NNW 5.8 mph - N/A   Mostly Cloudy
2:48 PM 73.4 °F 71.6 °F 94% 29.96 in 10.0 mi NNW 5.8 mph - 0.00 in Rain Light Rain
2:56 PM 73.9 °F 71.1 °F 91% 29.96 in 10.0 mi North 6.9 mph - 0.00 in   Mostly Cloudy
3:03 PM 73.4 °F 71.6 °F 94% 29.96 in 10.0 mi NNW 5.8 mph - N/A   Mostly Cloudy
3:14 PM 75.2 °F 69.8 °F 83% 29.96 in 10.0 mi NNE 9.2 mph - N/A   Mostly Cloudy
3:56 PM 75.0 °F 69.1 °F 82% 29.96 in 10.0 mi North 11.5 mph - N/A   Partly Cloudy
4:17 PM 75.2 °F 69.8 °F 83% 29.96 in 10.0 mi North 6.9 mph - N/A   Mostly Cloudy
4:56 PM 75.0 °F 68.0 °F 79% 29.96 in 10.0 mi North 10.4 mph - N/A   Mostly Cloudy
5:56 PM 73.0 °F 69.1 °F 87% 29.97 in 10.0 mi North 8.1 mph - 0.00 in   Mostly Cloudy
6:56 PM 75.0 °F 68.0 °F 79% 29.98 in 10.0 mi NNE 10.4 mph - N/A   Mostly Cloudy
7:56 PM 72.0 °F 66.0 °F 81% 29.99 in 10.0 mi NE 5.8 mph - N/A   Partly Cloudy
8:56 PM 70.0 °F 66.9 °F 90% 30.01 in 10.0 mi Calm Calm - N/A   Clear
9:56 PM 71.1 °F 64.9 °F 81% 30.03 in 10.0 mi NNE 9.2 mph - N/A   Partly Cloudy
10:56 PM 69.1 °F 63.0 °F 81% 30.03 in 10.0 mi North - - N/A   Clear
11:56 PM 68.0 °F 61.0 °F 78% 30.05 in 10.0 mi North 9.2 mph - N/A   Clear